This is the latest recevied weather packets stored in our database for station/object KR4KUV. If no packets are shown the sender has not sent any weather packets the latest 10 day(s).
| Time | Temp. | Humidity | Pressure | Rain* | Wind** | Luminosity | Snow |
|---|---|---|---|---|---|---|---|
| 1788110502 | 26.67° C | 79% | 1024.5 hPa | 0 mm | - | 199 W/m² | - |
| 1788110202 | 27.22° C | 76% | 1024.8 hPa | 0 mm | - | 254 W/m² | - |
| 1788109897 | 27.22° C | 77% | 1024.9 hPa | 0 mm | - | 459 W/m² | - |
| 1788109592 | 27.22° C | 77% | 1024.9 hPa | 0 mm | - | 234 W/m² | - |
| 1788109291 | 27.22° C | 78% | 1025 hPa | 0 mm | - | 562 W/m² | - |
| 1788108986 | 27.22° C | 77% | 1025.1 hPa | 0 mm | - | 163 W/m² | - |
| 1788108682 | 27.78° C | 77% | 1025 hPa | 0 mm | - | 157 W/m² | - |
| 1788108378 | 28.89° C | 77% | 1025 hPa | 0 mm | - | 778 W/m² | - |
| 1788108073 | 28.89° C | 76% | 1025 hPa | 0 mm | - | 541 W/m² | - |
| 1788107770 | 27.78° C | 77% | 1025 hPa | 0 mm | - | 681 W/m² | - |
| 1788107470 | 27.78° C | 77% | 1025 hPa | 0 mm | - | 349 W/m² | - |
| 1788107165 | 27.78° C | 79% | 1025.2 hPa | 0 mm | - | 734 W/m² | - |
| 1788106861 | 27.22° C | 81% | 1025.2 hPa | 0 mm | - | 713 W/m² | - |
| 1788106555 | 26.67° C | 79% | 1025.5 hPa | 0 mm | - | 681 W/m² | - |
| 1788106250 | 26.11° C | 84% | 1025.4 hPa | 0 mm | - | 658 W/m² | - |
| 1788105946 | 25.56° C | 84% | 1025.2 hPa | 0 mm | - | 153 W/m² | - |
| 1788105641 | 25.56° C | 84% | 1025.6 hPa | 0 mm | - | 113 W/m² | - |
| 1788105337 | 25.56° C | 84% | 1025.6 hPa | 0 mm | - | 113 W/m² | - |
| 1788105032 | 26.67° C | 83% | 1025.3 hPa | 0 mm | - | 138 W/m² | - |
| 1788104727 | 26.11° C | 81% | 1025.5 hPa | 0 mm | - | 216 W/m² | - |
| 1788104424 | 25.56° C | 84% | 1025.4 hPa | 0 mm | - | 197 W/m² | - |
| 1788104119 | 25.56° C | 84% | 1025.4 hPa | 0 mm | - | 223 W/m² | - |
| 1788103814 | 26.11° C | 85% | 1025.3 hPa | 0 mm | - | 231 W/m² | - |
| 1788103508 | 26.11° C | 83% | 1025.5 hPa | 0 mm | - | 205 W/m² | - |
| 1788103207 | 26.11° C | 83% | 1025.4 hPa | 0 mm | - | 151 W/m² | - |
* Rain latest hour (hover to see other rain measurements)
** Current wind speed in m/s (hover to see current wind gust speed)